"TOA5","MOW","CPU:UNC_MeetingWaters","DataHourly"
"TIMESTAMP","SondeTempC","SpCond","DOSat","DOmg","pH","Turb","BattVolt_Min"
"TS","","","","","","",""
"","Smp","Smp","Smp","Smp","Smp","Smp","Min"
"2003-04-01 00:00:00",10.0799999237,0.266000002623,98.4000015259,11.0799999237,7.38999986649,43.0999984741,12.5399999619
"2003-04-01 01:00:00",9.77999973297,0.264999985695,99.4000015259,11.2700004578,7.38999986649,35.5,12.5200004578
"2003-04-01 02:00:00",9.52000045776,0.270000010729,100.199996948,11.4300003052,7.40000009537,29.7999992371,12.5
"2003-04-01 03:00:00",9.28999996185,0.27500000596,100.099998474,11.4799995422,7.40000009537,25.8999996185,12.4799995422
"2003-04-01 04:00:00",9.14999961853,0.273999989033,100.699996948,11.5900001526,7.40999984741,23.6000003815,12.4600000381
"2003-04-01 05:00:00",9.02000045776,0.275999993086,100.900001526,11.6499996185,7.40999984741,22.7999992371,12.4499998093
"2003-04-01 06:00:00",8.96000003815,0.273000001907,101.099998474,11.6899995804,7.40999984741,21.1000003815,12.4300003052
"2003-04-01 07:00:00",8.97000026703,0.268999993801,102.099998474,11.8000001907,7.42000007629,21.2000007629,12.4200000763
"2003-04-01 08:00:00",9.10999965668,0.266999989748,103.199996948,11.8900003433,7.42999982834,20.6000003815,12.5399999619
"2003-04-01 09:00:00",9.48999977112,0.263999998569,107.199996948,12.2299995422,7.46000003815,19.6000003815,12.9200000763
"2003-04-01 10:00:00",10.1199998856,0.268000006676,110.199996948,12.3999996185,7.48999977112,21.3999996185,13.2700004578
"2003-04-01 11:00:00",11.1099996567,0.219999998808,110.0,12.0900001526,7.55000019073,14.1000003815,13.5
"2003-04-01 12:00:00",13.0699996948,0.184000000358,108.0,11.3500003815,7.53000020981,14.3000001907,13.4099998474
"2003-04-01 13:00:00",14.1999998093,0.180999994278,106.900001526,10.970000267,7.46000003815,17.0,13.3500003815
"2003-04-01 14:00:00",14.6599998474,0.187999993563,106.800003052,10.8400001526,7.40999984741,21.5,13.279999733
"2003-04-01 15:00:00",14.5500001907,0.187000006437,106.199996948,10.8000001907,7.38999986649,18.8999996185,13.2299995422
"2003-04-01 16:00:00",14.3999996185,0.190999999642,103.300003052,10.5500001907,7.34999990463,25.8999996185,13.1899995804
"2003-04-01 17:00:00",14.1300001144,0.192000001669,103.0,10.5799999237,7.32999992371,30.7999992371,12.7700004578
"2003-04-01 18:00:00",13.9099998474,0.192000001669,101.599998474,10.4899997711,7.26000022888,24.7999992371,12.720000267
"2003-04-01 19:00:00",13.6999998093,0.196999996901,97.1999969482,10.0799999237,7.25,22.7999992371,12.6899995804
"2003-04-01 20:00:00",13.4600000381,0.206000000238,95.8000030518,9.98999977112,7.21000003815,24.2000007629,12.6599998474
"2003-04-01 21:00:00",13.2899999619,0.224000006914,94.9000015259,9.93000030518,7.19999980927,31.7999992371,12.6400003433
"2003-04-01 22:00:00",13.1999998093,0.247999995947,94.4000015259,9.89000034332,7.23999977112,35.5,12.6099996567
"2003-04-01 23:00:00",13.1000003815,0.261999994516,94.1999969482,9.89999961853,7.28000020981,32.2000007629,12.5900001526
"2003-04-02 00:00:00",12.970000267,0.277000010014,94.0,9.89999961853,7.30000019073,27.8999996185,12.5699996948
"2003-04-02 01:00:00",12.8400001526,0.293000012636,93.5,9.88000011444,7.32000017166,25.0,12.5600004196
"2003-04-02 02:00:00",12.6899995804,0.300999999046,93.3000030518,9.89999961853,7.34000015259,20.6000003815,12.5399999619
"2003-04-02 03:00:00",12.529999733,0.300000011921,93.5999984741,9.94999980927,7.34999990463,16.8999996185,12.5200004578
"2003-04-02 04:00:00",12.3500003815,0.294999986887,93.9000015259,10.029999733,7.36000013351,14.3999996185,12.4899997711
"2003-04-02 05:00:00",12.1599998474,0.291999995708,96.4000015259,10.3400001526,7.36999988556,13.0,12.470000267
"2003-04-02 06:00:00",11.9799995422,0.289999991655,97.8000030518,10.5399999619,7.38999986649,11.3000001907,12.4499998093
"2003-04-02 07:00:00",11.8000001907,0.291999995708,99.4000015259,10.75,7.40999984741,10.3999996185,12.4300003052
"2003-04-02 08:00:00",11.9300003052,0.289999991655,102.300003052,11.0399999619,7.44000005722,10.1000003815,12.779999733
"2003-04-02 09:00:00",12.5699996948,0.287000000477,107.099998474,11.3800001144,7.48999977112,10.0,13.3999996185
"2003-04-02 10:00:00",13.4399995804,0.282999992371,111.400001526,11.6199998856,7.53000020981,12.3999996185,13.2700004578
"2003-04-02 11:00:00",14.6000003815,0.282000005245,113.300003052,11.5200004578,7.57000017166,10.8000001907,13.1999998093
"2003-04-02 12:00:00",16.0499992371,0.282000005245,115.599998474,11.3900003433,7.61000013351,10.0,13.1499996185
"2003-04-02 13:00:00",17.2000007629,0.284999996424,115.599998474,11.1199998856,7.63999986649,9.89999961853,13.1199998856
"2003-04-02 14:00:00",17.9200000763,0.28900000453,115.099998474,10.9099998474,7.65999984741,10.5,13.0699996948
"2003-04-02 15:00:00",18.2600002289,0.28900000453,112.699996948,10.6000003815,7.67000007629,9.5,13.029999733
"2003-04-02 16:00:00",18.0100002289,0.287999987602,106.400001526,10.0699996948,7.63999986649,23.3999996185,13.0100002289
"2003-04-02 17:00:00",17.8099994659,0.289999991655,101.900001526,9.68000030518,7.59999990463,12.6999998093,12.75
"2003-04-02 18:00:00",17.5900001526,0.293999999762,97.1999969482,9.27000045776,7.57000017166,15.8000001907,12.7100000381
"2003-04-02 19:00:00",17.2999992371,0.29699999094,93.0999984741,8.93999958038,7.51000022888,17.3999996185,12.6800003052
"2003-04-02 20:00:00",16.9699993134,0.300000011921,91.3000030518,8.81999969482,7.48000001907,15.8999996185,12.6499996185
"2003-04-02 21:00:00",16.5699996948,0.300999999046,90.9000015259,8.85000038147,7.46999979019,15.3000001907,12.6199998856
"2003-04-02 22:00:00",16.2099990845,0.301999986172,90.8000030518,8.90999984741,7.46000003815,16.0,12.5900001526
"2003-04-02 23:00:00",15.8000001907,0.301999986172,91.5,9.06000041962,7.44999980927,15.1000003815,12.5699996948
"2003-04-03 00:00:00",15.4099998474,0.303000003099,92.3000030518,9.22000026703,7.44999980927,15.0,12.5600004196
"2003-04-03 01:00:00",15.0500001907,0.305999994278,92.4000015259,9.30000019073,7.44999980927,13.3000001907,12.529999733
"2003-04-03 02:00:00",14.720000267,0.31400001049,91.8000030518,9.31000041962,7.44000005722,13.5,12.5100002289
"2003-04-03 03:00:00",14.3900003433,0.317000001669,91.5999984741,9.35999965668,7.44000005722,13.3000001907,12.4899997711
"2003-04-03 04:00:00",14.0699996948,0.314999997616,92.5999984741,9.52000045776,7.42999982834,11.1999998093,12.470000267
"2003-04-03 05:00:00",13.7299995422,0.312000006437,93.8000030518,9.72000026703,7.44000005722,9.60000038147,12.4499998093
"2003-04-03 06:00:00",13.4099998474,0.308999985456,95.0,9.90999984741,7.44000005722,9.19999980927,12.4300003052
"2003-04-03 07:00:00",13.1300001144,0.305999994278,96.5,10.1300001144,7.46000003815,8.39999961853,12.4099998474
"2003-04-03 08:00:00",13.1700000763,0.305000007153,100.5,10.5399999619,7.48999977112,8.69999980927,12.8400001526
"2003-04-03 09:00:00",13.75,0.305000007153,107.199996948,11.1000003815,7.53000020981,8.10000038147,13.3699998856
"2003-04-03 10:00:00",14.5799999237,0.305000007153,112.5,11.4399995804,7.59000015259,8.60000038147,13.2399997711
"2003-04-03 11:00:00",15.6499996185,0.303000003099,115.5,11.4799995422,7.65000009537,9.19999980927,13.1700000763
"2003-04-03 12:00:00",17.0499992371,0.303999990225,118.800003052,11.470000267,7.71000003815,9.30000019073,13.1199998856
"2003-04-03 13:00:00",18.2099990845,0.305000007153,119.0,11.2100000381,7.75,9.60000038147,13.0699996948
"2003-04-03 14:00:00",18.8799991608,0.303000003099,118.199996948,10.9899997711,7.76999998093,11.1999998093,13.0100002289
"2003-04-03 15:00:00",19.1800003052,0.300000011921,115.5,10.6700000763,7.78000020981,11.6000003815,12.9799995422
"2003-04-03 16:00:00",18.9099998474,0.300999999046,108.800003052,10.1099996567,7.73999977112,11.1000003815,12.9600000381
"2003-04-03 17:00:00",18.6599998474,0.305000007153,102.199996948,9.52999973297,7.67000007629,10.1999998093,12.75
"2003-04-03 18:00:00",18.4699993134,0.308999985456,95.3000030518,8.93000030518,7.61999988556,9.5,12.7100000381
"2003-04-03 19:00:00",18.2600002289,0.310000002384,87.5999984741,8.23999977112,7.53999996185,11.3000001907,12.6800003052
"2003-04-03 20:00:00",17.7999992371,0.307999998331,87.0999984741,8.27000045776,7.48999977112,14.6999998093,12.6599998474
"2003-04-03 21:00:00",17.3500003815,0.307000011206,85.0,8.14999961853,7.42999982834,17.7000007629,12.6199998856
"2003-04-03 22:00:00",16.9500007629,0.307999998331,83.1999969482,8.03999996185,7.40999984741,16.7000007629,12.5900001526
"2003-04-03 23:00:00",16.6200008392,0.31099998951,86.0999984741,8.39000034332,7.40999984741,13.3000001907,12.5799999237
"2003-04-04 00:00:00",16.2199993134,0.312999993563,86.0,8.43999958038,7.42000007629,10.3999996185,12.5500001907
"2003-04-04 01:00:00",15.8000001907,0.31400001049,83.4000015259,8.26000022888,7.40999984741,9.30000019073,12.529999733
"2003-04-04 02:00:00",15.4499998093,0.31400001049,83.5,8.32999992371,7.40000009537,9.39999961853,12.5
"2003-04-04 03:00:00",15.0799999237,0.312999993563,85.5,8.60000038147,7.40999984741,11.6999998093,12.4899997711
"2003-04-04 04:00:00",14.8000001907,0.31400001049,89.0999984741,9.02000045776,7.42000007629,14.1000003815,12.470000267
"2003-04-04 05:00:00",14.5100002289,0.31400001049,88.5999984741,9.02000045776,7.42000007629,12.6999998093,12.4499998093
"2003-04-04 06:00:00",14.25,0.316000014544,90.8000030518,9.30000019073,7.42000007629,10.5,12.4300003052
"2003-04-04 07:00:00",14.0900001526,0.317999988794,92.0999984741,9.46000003815,7.46000003815,8.69999980927,12.4300003052
"2003-04-04 08:00:00",14.0900001526,0.317000001669,93.1999969482,9.57999992371,7.46999979019,7.69999980927,12.8400001526
"2003-04-04 09:00:00",14.5399999619,0.31400001049,105.199996948,10.7100000381,7.53000020981,7.0,13.3100004196
"2003-04-04 10:00:00",15.3000001907,0.312999993563,115.5,11.5600004196,7.59000015259,6.90000009537,13.2100000381
"2003-04-04 11:00:00",16.0799999237,0.312999993563,122.5,12.0600004196,7.65999984741,8.60000038147,13.1599998474
"2003-04-04 12:00:00",17.0300006866,0.316000014544,126.0,12.1599998474,7.71999979019,6.30000019073,13.1300001144
"2003-04-04 13:00:00",18.0699996948,0.321999996901,128.899993896,12.1700000763,7.78999996185,6.69999980927,13.1000003815
"2003-04-04 14:00:00",18.4200000763,0.324000000954,128.199996948,12.0200004578,7.84000015259,6.69999980927,12.9899997711
"2003-04-04 15:00:00",18.4400005341,0.324999988079,124.699996948,11.6999998093,7.84999990463,6.59999990463,12.9099998474
"2003-04-04 16:00:00",18.4300003052,0.323000013828,120.699996948,11.3100004196,7.84000015259,6.40000009537,13.0900001526
"2003-04-04 17:00:00",18.2999992371,0.319000005722,113.300003052,10.6599998474,7.80999994278,6.19999980927,12.779999733
"2003-04-04 18:00:00",18.2199993134,0.317000001669,105.300003052,9.90999984741,7.73999977112,6.80000019073,12.7100000381
"2003-04-04 19:00:00",18.0200004578,0.316000014544,95.5999984741,9.03999996185,7.65000009537,8.69999980927,12.6800003052
"2003-04-04 20:00:00",17.8400001526,0.314999997616,86.6999969482,8.22999954224,7.53999996185,10.0,12.6599998474
"2003-04-04 21:00:00",17.5300006866,0.316000014544,83.1999969482,7.94000005722,7.46999979019,9.80000019073,12.6400003433
"2003-04-04 22:00:00",17.2099990845,0.319000005722,83.1999969482,8.0,7.42999982834,9.10000038147,12.6199998856
"2003-04-04 23:00:00",16.8600006104,0.326999992132,85.5999984741,8.28999996185,7.42000007629,8.89999961853,12.6000003815
"2003-04-05 00:00:00",16.5699996948,0.333000004292,84.0,8.18000030518,7.40000009537,9.0,12.5699996948
"2003-04-05 01:00:00",16.25,0.335000008345,83.0999984741,8.14999961853,7.38000011444,9.30000019073,12.5600004196
"2003-04-05 02:00:00",15.970000267,0.331999987364,78.3000030518,7.71999979019,7.36000013351,9.0,12.5399999619
"2003-04-05 03:00:00",15.7100000381,0.326999992132,76.5,7.59000015259,7.36000013351,8.80000019073,12.5200004578
"2003-04-05 04:00:00",15.529999733,0.321999996901,79.6999969482,7.94000005722,7.36000013351,8.19999980927,12.5100002289
"2003-04-05 05:00:00",15.4099998474,0.317999988794,81.4000015259,8.11999988556,7.36999988556,7.0,12.4899997711
"2003-04-05 06:00:00",15.1899995804,0.317000001669,83.5,8.38000011444,7.36000013351,6.30000019073,12.4799995422
"2003-04-05 07:00:00",15.1099996567,0.316000014544,78.3000030518,7.86999988556,7.34000015259,5.69999980927,12.4600000381
"2003-04-05 08:00:00",15.1599998474,0.316000014544,92.6999969482,9.30000019073,7.38000011444,5.90000009537,13.0500001907
"2003-04-05 09:00:00",15.4600000381,0.31400001049,103.099998474,10.279999733,7.44999980927,5.5,13.0500001907
"2003-04-05 10:00:00",15.9099998474,0.312999993563,111.5,11.0200004578,7.51000022888,5.69999980927,13.1800003052
"2003-04-05 11:00:00",16.2099990845,0.312999993563,108.400001526,10.6400003433,7.53999996185,6.90000009537,12.7600002289
"2003-04-05 12:00:00",16.5900001526,0.324999988079,76.0999984741,7.40999984741,7.38000011444,106.5,13.2899999619
"2003-04-05 13:00:00",17.3999996185,0.300999999046,3.29999995232,0.319999992847,7.09999990463,87.0999984741,13.0
"2003-04-05 14:00:00",17.3799991608,0.277999997139,1.29999995232,0.119999997318,7.01999998093,120.0,13.3100004196
"2003-04-05 15:00:00",17.9500007629,0.252000004053,0.699999988079,0.070000000298,6.94999980927,199.0,13.25
"2003-04-05 16:00:00",18.1100006104,0.250999987125,0.699999988079,0.0599999986589,6.86000013351,141.199996948,13.1800003052
"2003-04-05 17:00:00",18.0499992371,0.243000000715,0.600000023842,0.0599999986589,6.82999992371,120.5,12.7399997711
"2003-04-05 18:00:00",17.8999996185,0.234999999404,0.600000023842,0.0500000007451,6.80999994278,81.5999984741,12.6800003052
"2003-04-05 19:00:00",17.6499996185,0.232999995351,0.5,0.0500000007451,6.78999996185,67.5,12.6599998474
"2003-04-05 20:00:00",17.3500003815,0.238000005484,0.5,0.0500000007451,6.78000020981,51.5999984741,12.6300001144
"2003-04-05 21:00:00",17.0799999237,0.246000006795,0.5,0.0500000007451,6.78999996185,53.2999992371,12.6099996567
"2003-04-05 22:00:00",16.8500003815,0.25799998641,0.5,0.0500000007451,6.82999992371,32.7999992371,12.5900001526
"2003-04-05 23:00:00",16.6100006104,0.263999998569,0.5,0.0500000007451,6.84000015259,27.6000003815,12.5699996948
"2003-04-06 00:00:00",16.3299999237,0.272000014782,0.5,0.0500000007451,6.84000015259,20.5,12.5500001907
"2003-04-06 01:00:00",16.0300006866,0.280000001192,0.5,0.0500000007451,6.86000013351,15.6999998093,12.529999733
"2003-04-06 02:00:00",15.6999998093,0.282999992371,0.5,0.0500000007451,6.88999986649,11.6000003815,12.5100002289
"2003-04-06 03:00:00",15.3100004196,0.286000013351,0.5,0.0500000007451,6.90000009537,34.2999992371,12.4799995422
"2003-04-06 04:00:00",14.8999996185,0.289999991655,0.5,0.0500000007451,6.90000009537,8.89999961853,12.4499998093
"2003-04-06 05:00:00",14.3800001144,0.293000012636,0.600000023842,0.0599999986589,6.88999986649,6.59999990463,12.4300003052
"2003-04-06 06:00:00",13.9899997711,0.293999999762,0.5,0.0599999986589,6.88000011444,43.2000007629,12.4099998474
"2003-04-06 07:00:00",13.6899995804,0.294999986887,0.5,0.0599999986589,6.92999982834,5.19999980927,12.4300003052
"2003-04-06 08:00:00",13.6400003433,0.298000007868,0.5,0.0500000007451,6.96000003815,4.90000009537,13.1000003815
"2003-04-06 09:00:00",14.0699996948,0.298999994993,0.5,0.0500000007451,6.98000001907,5.0,13.4200000763
"2003-04-06 10:00:00",14.6000003815,0.298999994993,0.5,0.0500000007451,6.98999977112,7.80000019073,13.3400001526
"2003-04-06 11:00:00",15.3400001526,0.300999999046,0.5,0.0500000007451,6.98000001907,6.0,13.2899999619
"2003-04-06 12:00:00",16.0200004578,0.307999998331,0.5,0.0500000007451,6.98000001907,4.90000009537,13.279999733
"2003-04-06 13:00:00",16.7999992371,0.316000014544,0.5,0.0399999991059,6.94000005722,7.40000009537,13.25
"2003-04-06 14:00:00",17.2299995422,0.323000013828,0.5,0.0399999991059,6.90000009537,30.7999992371,13.2299995422
"2003-04-06 15:00:00",17.6299991608,0.330000013113,0.40000000596,0.0399999991059,6.86999988556,4.90000009537,13.1999998093
"2003-04-06 16:00:00",17.3700008392,0.335000008345,0.40000000596,0.0399999991059,6.86000013351,53.2000007629,13.1800003052
"2003-04-06 17:00:00",16.9899997711,0.337999999523,0.40000000596,0.0399999991059,6.86999988556,5.09999990463,12.7899999619
"2003-04-06 18:00:00",16.6599998474,0.338999986649,0.40000000596,0.0399999991059,6.88000011444,5.90000009537,12.720000267
"2003-04-06 19:00:00",16.3400001526,0.337000012398,0.40000000596,0.0399999991059,6.90000009537,3.90000009537,12.6800003052
"2003-04-06 20:00:00",16.0300006866,0.33599999547,0.40000000596,0.0399999991059,6.92000007629,4.90000009537,12.6499996185
"2003-04-06 21:00:00",15.779999733,0.333999991417,0.40000000596,0.0399999991059,6.94999980927,4.90000009537,12.6300001144
"2003-04-06 22:00:00",15.5100002289,0.32800000906,0.40000000596,0.0399999991059,7.0,4.59999990463,12.6199998856
"2003-04-06 23:00:00",15.2399997711,0.326000005007,0.5,0.0500000007451,7.03000020981,3.79999995232,12.6000003815
"2003-04-07 00:00:00",14.9099998474,0.326999992132,0.5,0.0500000007451,7.07000017166,4.09999990463,12.5699996948
"2003-04-07 01:00:00",14.4899997711,0.328999996185,0.5,0.0500000007451,7.07999992371,4.09999990463,12.5500001907
"2003-04-07 02:00:00",14.0399999619,0.331999987364,0.5,0.0500000007451,7.09999990463,30.0,12.5200004578
"2003-04-07 03:00:00",13.1400003433,0.282000005245,0.5,0.0500000007451,7.09999990463,64.4000015259,12.4899997711
"2003-04-07 04:00:00",12.5399999619,0.112000003457,0.5,0.0500000007451,6.82000017166,1367.0,12.4499998093
"2003-04-07 05:00:00",11.720000267,0.0839999988675,0.600000023842,0.0599999986589,6.59000015259,1363.0,12.4200000763
"2003-04-07 06:00:00",11.0799999237,0.0769999995828,0.5,0.0599999986589,6.48999977112,286.200012207,12.3900003433
"2003-04-07 07:00:00",9.90999984741,0.0590000003576,0.600000023842,0.0599999986589,6.71999979019,508.899993896,12.3699998856
"2003-04-07 08:00:00",10.25,0.0670000016689,0.5,0.0599999986589,6.78000020981,280.200012207,12.3599996567
"2003-04-07 09:00:00",10.2899999619,0.070000000298,0.5,0.0599999986589,6.82000017166,299.799987793,12.3699998856
"2003-04-07 10:00:00",10.4600000381,0.0729999989271,0.5,0.0599999986589,6.84000015259,245.0,12.3900003433
"2003-04-07 11:00:00",10.5200004578,0.0799999982119,0.5,0.0599999986589,6.82000017166,310.0,12.4499998093
"2003-04-07 12:00:00",10.7899999619,0.0759999975562,0.5,0.0599999986589,6.90999984741,239.699996948,12.6400003433
"2003-04-07 13:00:00",10.5500001907,0.0560000017285,0.5,0.0599999986589,6.88000011444,481.600006104,12.8400001526
"2003-04-07 14:00:00",11.029999733,0.0790000036359,0.5,0.0599999986589,6.84000015259,345.5,12.7600002289
"2003-04-07 15:00:00",11.5900001526,0.189999997616,0.5,0.0500000007451,6.92999982834,212.600006104,12.6899995804
"2003-04-07 16:00:00",11.6400003433,0.168999999762,0.5,0.0599999986589,6.92999982834,164.300003052,12.6499996185
"2003-04-07 17:00:00",11.6400003433,0.153999999166,0.5,0.0500000007451,6.96999979019,137.100006104,12.5799999237
"2003-04-07 18:00:00",11.6199998856,0.157000005245,0.5,0.0599999986589,7.01000022888,122.5,12.5100002289
"2003-04-07 19:00:00",11.5399999619,0.16400000453,0.5,0.0599999986589,7.01999998093,77.0999984741,12.4300003052
"2003-04-07 20:00:00",11.4600000381,0.170000001788,0.5,0.0500000007451,7.03999996185,82.3000030518,12.3800001144
"2003-04-07 21:00:00",11.3999996185,0.175999999046,0.5,0.0599999986589,7.05000019073,61.2000007629,12.3699998856
"2003-04-07 22:00:00",11.3500003815,0.181999996305,0.5,0.0500000007451,7.07000017166,52.7000007629,12.3599996567
"2003-04-07 23:00:00",11.3000001907,0.188999995589,0.5,0.0599999986589,7.09000015259,66.4000015259,12.3500003815
"2003-04-08 00:00:00",11.2600002289,0.195999994874,0.5,0.0599999986589,7.11000013351,44.2999992371,12.3400001526
"2003-04-08 01:00:00",11.25,0.204999998212,0.5,0.0599999986589,7.13000011444,41.0999984741,12.3500003815
"2003-04-08 02:00:00",11.1899995804,0.211999997497,0.5,0.0599999986589,7.13000011444,219.5,12.3400001526
"2003-04-08 03:00:00",11.1199998856,0.217999994755,0.5,0.0599999986589,7.13999986649,57.4000015259,12.3400001526
"2003-04-08 04:00:00",11.029999733,0.223000004888,0.5,0.0599999986589,7.13999986649,399.600006104,12.3299999237
"2003-04-08 05:00:00",11.0100002289,0.228000000119,0.5,0.0500000007451,7.13999986649,32.5999984741,12.3299999237
"2003-04-08 06:00:00",10.9600000381,0.232999995351,0.5,0.0500000007451,7.15000009537,405.5,12.3299999237
"2003-04-08 07:00:00",10.8999996185,0.238000005484,0.5,0.0500000007451,7.13999986649,1239.0,12.3199996948
"2003-04-08 08:00:00",10.8699998856,0.240999996662,0.5,0.0599999986589,7.15999984741,917.0,12.3299999237
"2003-04-08 09:00:00",10.9099998474,0.245000004768,0.5,0.0500000007451,7.17000007629,167.5,12.6199998856
"2003-04-08 10:00:00",11.1000003815,0.247999995947,0.5,0.0500000007451,7.21000003815,144.100006104,12.7299995422
"2003-04-08 11:00:00",11.2700004578,0.252000004053,0.5,0.0500000007451,7.21999979019,222.699996948,12.6999998093
"2003-04-08 12:00:00",11.3999996185,0.254999995232,0.5,0.0500000007451,7.23000001907,181.300003052,12.7700004578
"2003-04-08 13:00:00",11.5200004578,0.25799998641,0.5,0.0500000007451,7.21000003815,332.100006104,12.720000267
"2003-04-08 14:00:00",11.5200004578,0.261000007391,0.5,0.0500000007451,7.17000007629,725.0,12.6400003433
"2003-04-08 15:00:00",11.4799995422,0.261000007391,0.5,0.0500000007451,7.13000011444,818.0,12.7100000381
"2003-04-08 16:00:00",11.5,0.25799998641,0.5,0.0500000007451,7.09999990463,1042.0,12.5799999237
"2003-04-08 17:00:00",11.9200000763,0.256000012159,0.5,0.0500000007451,7.13999986649,1152.0,12.5100002289
"2003-04-08 18:00:00",11.8000001907,0.254000008106,0.5,0.0500000007451,7.07000017166,746.0,12.4499998093
"2003-04-08 19:00:00",11.6199998856,0.252999991179,0.5,0.0500000007451,7.03999996185,531.799987793,12.3900003433
"2003-04-08 20:00:00",11.7100000381,0.248999997973,0.5,0.0500000007451,7.05000019073,132.100006104,12.3500003815
"2003-04-08 21:00:00",10.7399997711,0.175999999046,0.5,0.0500000007451,6.96000003815,300.899993896,12.3400001526
"2003-04-08 22:00:00",9.98999977112,0.0860000029206,0.5,0.0500000007451,6.82999992371,314.200012207,12.3299999237
"2003-04-08 23:00:00",9.47000026703,0.0640000030398,1.20000004768,0.140000000596,6.73999977112,1353.0,12.3299999237
"2003-04-09 00:00:00",9.72000026703,0.0649999976158,0.5,0.0599999986589,6.80000019073,517.900024414,12.3199996948
"2003-04-09 01:00:00",9.47999954224,0.0509999990463,1.60000002384,0.180000007153,6.75,1353.0,12.3199996948
"2003-04-09 02:00:00",9.82999992371,0.0619999989867,0.5,0.0599999986589,6.82999992371,223.5,12.3100004196
"2003-04-09 03:00:00",9.68000030518,0.0610000006855,0.5,0.0599999986589,6.84999990463,199.899993896,12.3100004196
"2003-04-09 04:00:00",9.15999984741,0.0489999987185,11.3999996185,1.30999994278,6.65000009537,253.300003052,12.3000001907
"2003-04-09 05:00:00",9.59000015259,0.0610000006855,113.199996948,12.9099998474,6.82999992371,209.199996948,12.3000001907
"2003-04-09 06:00:00",10.1000003815,0.0810000002384,112.0,12.6199998856,6.90999984741,146.600006104,12.3000001907
"2003-04-09 07:00:00",10.3400001526,0.097000002861,109.199996948,12.220000267,6.92999982834,119.599998474,12.2899999619
"2003-04-09 08:00:00",10.5600004196,0.112000003457,108.900001526,12.1300001144,6.98999977112,231.800003052,12.3000001907
"2003-04-09 09:00:00",10.9799995422,0.196999996901,106.0,11.6899995804,7.05000019073,199.100006104,12.4799995422
"2003-04-09 10:00:00",10.9399995804,0.153999999166,105.599998474,11.6599998474,7.05999994278,664.299987793,12.5200004578
"2003-04-09 11:00:00",11.1499996185,0.165000006557,105.199996948,11.5600004196,7.09999990463,385.799987793,12.8500003815
"2003-04-09 12:00:00",11.4399995804,0.182999998331,105.199996948,11.4799995422,7.13999986649,226.600006104,12.8599996567
"2003-04-09 13:00:00",11.5500001907,0.189999997616,101.699996948,11.0699996948,7.15000009537,241.5,12.8500003815